[[{"header":{"parameterUnit":"m.s-1","parameterCategory":1,"la1":30.2991,"la2":30.254,"lo1":-89.0895,"lo2":-89.0444,"dy":0.0017,"dx":0.0017,"nx":28,"ny":28,"refTime":"2025-05-25T09:00:00:Z","depth":0,"parameterNumber":2,"parameterNumberName":"U-component_of_WINDS"},"data":[0,0,0,0,0,0,0,0,0,0,0,0,0,0,0,0,0,0,0,0,0,0,0,0,0,0,0,0,0,0,0,0,0,0,0,0,0,0,0,0,0,0,0,0,0,0,0,0,0,0,0,0,0,0,0,0,0,0,-0.4581,-0.458,0,-0.4512,-0.4511,-0.451,-0.4479,-0.4479,-0.4479,-0.4479,-0.441,-0.4408,-0.4406,0,0,0,0,0,0,0,0,0,0,0,0,0,-0.4687,-0.4686,-0.4581,-0.458,-0.4579,-0.4512,-0.4511,-0.451,-0.4478,-0.4479,-0.4479,-0.4479,-0.4411,-0.4408,-0.4406,0,0,0,0,0,0,0,0,0,0,0,0,0,-0.4632,-0.4685,-0.4581,-0.4555,-0.4552,-0.4512,-0.4511,-0.4509,-0.4478,-0.4479,-0.4479,-0.4479,-0.4411,-0.4409,-0.4406,-0.4386,0,0,-0.4397,-0.4396,0,0,0,0,0,0,0,0,-0.4635,-0.4628,-0.456,-0.4557,-0.4553,-0.4504,-0.4523,-0.4468,-0.4478,-0.4507,-0.4479,-0.4479,-0.4441,-0.4436,-0.4423,-0.4383,-0.438,-0.4397,-0.4395,-0.4394,-0.4393,0,0,0,0,0,0,0,-0.4639,-0.4631,-0.4553,-0.4559,-0.4555,-0.4548,-0.454,-0.4513,-0.4474,-0.4504,-0.4502,-0.4494,-0.4439,-0.4426,-0.4421,-0.4379,-0.4397,-0.4394,-0.4393,-0.4392,-0.432,-0.432,0,0,0,0,0,0,-0.4647,-0.4634,-0.4556,-0.4551,-0.4595,-0.4546,-0.4537,-0.452,-0.4474,-0.4468,-0.4494,-0.4493,-0.443,-0.4424,-0.4418,-0.4392,-0.4394,-0.4391,-0.439,-0.432,-0.432,-0.432,0,0,0,0,0,0,-0.4649,-0.464,-0.4558,-0.4592,-0.4581,-0.4544,-0.4524,-0.4518,-0.4504,-0.4467,-0.446,-0.4486,-0.443,-0.4422,-0.4394,-0.439,-0.439,-0.4387,-0.4321,-0.432,-0.432,-0.4341,0,0,0,0,0,0,-0.4653,-0.4641,-0.4633,-0.4592,-0.4579,-0.4535,-0.4524,-0.4517,-0.4499,-0.4497,-0.4458,-0.4452,-0.443,-0.4399,-0.4392,-0.4386,-0.4385,-0.4321,-0.432,-0.432,-0.434,-0.4341,-0.4342,0,0,0,0,0,-0.4656,-0.4642,-0.4633,-0.4623,-0.4568,-0.4535,-0.4527,-0.4502,-0.4499,-0.4491,-0.4466,-0.4453,-0.4391,-0.4396,-0.4388,-0.4381,-0.4321,-0.432,-0.432,-0.434,-0.4341,-0.4342,0,0,0,0,0,0,-0.4684,-0.4636,-0.4625,-0.4597,-0.457,-0.4529,-0.4518,-0.4504,-0.4478,-0.4477,-0.4447,-0.4439,-0.4413,-0.4394,-0.44,-0.436,-0.4355,-0.4353,-0.4373,-0.4374,-0.4375,-0.4379,-0.4383,0,0,0,0,0,-0.4687,-0.4663,-0.4623,-0.4602,-0.4589,-0.4556,-0.454,-0.4523,-0.4494,-0.4483,-0.4456,-0.4429,-0.4404,-0.4388,-0.4362,-0.4338,-0.4329,-0.4329,-0.433,-0.4331,-0.4329,-0.4314,-0.4314,-0.4318,-0.4318,-0.4318,0,0,-0.4692,-0.4663,-0.465,-0.4606,-0.4583,-0.456,-0.4546,-0.4522,-0.4504,-0.4479,-0.4451,-0.4431,-0.4399,-0.4372,-0.4359,-0.4356,-0.4326,-0.433,-0.4331,-0.4329,-0.4314,-0.4313,-0.4313,-0.4318,-0.4318,-0.4318,0,0,-0.469,-0.4666,-0.4645,-0.4623,-0.4588,-0.4566,-0.4561,-0.4522,-0.4508,-0.4479,-0.4459,-0.4438,-0.4395,-0.4373,-0.4356,-0.4346,-0.4332,-0.4338,-0.4343,-0.4329,-0.4328,-0.4328,-0.4324,-0.4323,-0.4337,-0.4337,-0.4337,0,-0.4702,-0.4665,-0.4637,-0.4613,-0.4595,-0.457,-0.455,-0.4529,-0.4488,-0.4476,-0.4473,-0.4418,-0.4395,-0.4363,-0.436,-0.4347,-0.4341,-0.4343,-0.4331,-0.433,-0.4329,-0.4325,-0.4324,-0.4338,-0.4338,-0.4338,-0.4338,0,-0.468,-0.4655,-0.4643,-0.4603,-0.4583,-0.4562,-0.4531,-0.4515,-0.4499,-0.4478,-0.4449,-0.442,-0.4388,-0.438,-0.4365,-0.4345,-0.4344,-0.4336,-0.4331,-0.433,-0.4326,-0.4324,-0.4339,-0.4339,-0.4339,-0.4339,0,0,-0.4694,-0.4638,-0.4634,-0.4616,-0.4576,-0.4556,-0.4533,-0.4501,-0.4488,-0.4461,-0.4441,-0.4405,-0.4397,-0.4378,-0.436,-0.4348,-0.4342,-0.4341,-0.434,-0.4342,-0.4318,-0.4325,-0.4323,-0.4333,-0.4332,-0.4332,-0.4321,0,-0.4686,-0.4643,-0.4618,-0.4585,-0.4562,-0.4538,-0.4518,-0.4492,-0.4472,-0.4449,-0.4427,-0.4402,-0.4394,-0.4382,-0.4369,-0.4345,-0.4336,-0.4346,-0.4314,-0.4313,-0.4323,-0.4321,-0.4327,-0.4318,-0.4319,-0.4319,-0.4319,0,-0.4671,-0.4643,-0.4608,-0.457,-0.456,-0.4542,-0.4511,-0.449,-0.4459,-0.4446,-0.4424,-0.4406,-0.4382,-0.4379,-0.4345,-0.4352,-0.4338,-0.4324,-0.4323,-0.4319,-0.4316,-0.4317,-0.4315,-0.4314,-0.4316,-0.4316,-0.4316,0,-0.4683,-0.4638,-0.4611,-0.4596,-0.4551,-0.4539,-0.452,-0.449,-0.4473,-0.4446,-0.4434,-0.4405,-0.4389,-0.4367,-0.4342,-0.4342,-0.4311,-0.4305,-0.4299,-0.4299,-0.4293,-0.4294,-0.4289,-0.4285,-0.4285,-0.4285,-0.4285,0,-0.4677,-0.4657,-0.4616,-0.4599,-0.4576,-0.4547,-0.4525,-0.4505,-0.4478,-0.4457,-0.4436,-0.4417,-0.4385,-0.4363,-0.4343,-0.4318,-0.4311,-0.43,-0.4295,-0.4301,-0.4303,-0.4291,-0.4291,-0.4284,-0.4284,-0.4284,-0.4284,0,-0.4687,-0.4659,-0.4628,-0.4588,-0.4578,-0.4562,-0.4528,-0.4512,-0.449,-0.4465,-0.4457,-0.4424,-0.4396,-0.4369,-0.4333,-0.4319,-0.4295,-0.4288,-0.4305,-0.4302,-0.4296,-0.4297,-0.4284,-0.4281,-0.4279,-0.4279,-0.4279,0,-0.4685,-0.4669,-0.4627,-0.4611,-0.4592,-0.4567,-0.4549,-0.4521,-0.4503,-0.4467,-0.4455,-0.4425,-0.44,-0.4358,-0.4331,-0.4303,-0.4295,-0.4292,-0.4291,-0.4298,-0.4295,-0.4296,-0.4294,-0.4293,-0.4293,-0.4293,-0.4293,0,-0.4684,-0.467,-0.4644,-0.4614,-0.4592,-0.4567,-0.4541,-0.453,-0.4496,-0.4477,-0.4448,-0.4429,-0.4391,-0.4363,-0.4331,-0.4312,-0.4297,-0.4294,-0.4291,-0.4298,-0.4308,-0.4302,-0.4306,-0.4295,-0.4294,-0.4294,-0.4294,-0.4294,-0.4687,-0.4671,-0.4639,-0.4611,-0.4588,-0.4565,-0.4547,-0.4523,-0.4498,-0.4465,-0.445,-0.4421,-0.4391,-0.4347,-0.4329,-0.4306,-0.4302,-0.4298,-0.4297,-0.4296,-0.4297,-0.4312,-0.43,-0.43,-0.43,-0.43,-0.43,0,-0.4685,-0.4663,-0.4637,-0.4601,-0.4579,-0.4566,-0.4537,-0.4519,-0.4494,-0.4467,-0.4443,-0.441,-0.4382,-0.4353,-0.4323,-0.4311,-0.4303,-0.4304,-0.4304,-0.43,-0.4302,-0.4308,-0.431,-0.431,-0.431,-0.431,-0.431,-0.431,-0.4681,-0.4653,-0.4636,-0.4597,-0.4576,-0.4547,-0.4531,-0.4509,-0.4487,-0.4451,-0.4427,-0.4408,-0.4381,-0.4349,-0.4323,-0.4315,-0.4305,-0.4308,-0.4298,-0.4301,-0.43,-0.4299,-0.4304,-0.4306,-0.4306,-0.4297,-0.4297,-0.4297]},{"header":{"parameterUnit":"m.s-1","parameterCategory":1,"la1":30.2991,"la2":30.254,"lo1":-89.0895,"lo2":-89.0444,"dy":0.0017,"dx":0.0017,"nx":28,"ny":28,"refTime":"2025-05-25T09:00:00:Z","depth":0,"parameterNumber":3,"parameterNumberName":"V-component_of_WINDS"},"data":[0,0,0,0,0,0,0,0,0,0,0,0,0,0,0,0,0,0,0,0,0,0,0,0,0,0,0,0,0,0,0,0,0,0,0,0,0,0,0,0,0,0,0,0,0,0,0,0,0,0,0,0,0,0,0,0,0,0,2.9869,2.9869,0,2.9867,2.9867,2.9867,2.9692,2.9687,2.9682,2.9678,2.9678,2.9682,2.9686,0,0,0,0,0,0,0,0,0,0,0,0,0,2.972,2.9723,2.9869,2.9869,2.9869,2.9867,2.9867,2.9867,2.9692,2.9687,2.9681,2.9676,2.9676,2.9681,2.9686,0,0,0,0,0,0,0,0,0,0,0,0,0,2.9758,2.9725,2.9869,2.9781,2.9773,2.9867,2.9867,2.9867,2.9693,2.9687,2.968,2.9673,2.9675,2.9681,2.9687,2.9865,0,0,2.9707,2.971,0,0,0,0,0,0,0,0,2.9756,2.9764,2.9794,2.9787,2.9779,2.9772,2.9814,2.9866,2.9695,2.9724,2.9678,2.967,2.9715,2.9718,2.9732,2.9865,2.9865,2.9707,2.9711,2.9714,2.9716,0,0,0,0,0,0,0,2.9754,2.9763,2.9868,2.9795,2.9785,2.9742,2.974,2.9823,2.9758,2.9721,2.9708,2.971,2.9709,2.9727,2.9731,2.9865,2.9707,2.9713,2.9717,2.9719,3.0141,3.0148,0,0,0,0,0,0,2.9763,2.9762,2.9868,2.9868,2.975,2.975,2.9748,2.9781,2.9757,2.9746,2.9716,2.9702,2.9719,2.9724,2.973,2.9936,2.9714,2.972,2.9724,3.0134,3.0143,3.0151,0,0,0,0,0,0,2.9761,2.9774,2.9868,2.9811,2.982,2.976,2.9799,2.9785,2.9802,2.9753,2.9741,2.9746,2.9714,2.9721,2.9832,2.9934,2.9723,2.9729,3.0126,3.0137,3.0147,3.035,0,0,0,0,0,0,2.9757,2.9774,2.9842,2.9814,2.9824,2.9971,2.9806,2.979,2.9814,2.9795,2.9778,2.9768,2.9709,2.9824,2.9839,2.9939,2.9734,3.0116,3.0131,3.0144,3.0334,3.0366,3.0394,0,0,0,0,0,2.9752,2.9899,2.9846,2.986,2.9906,2.9977,2.9982,2.9911,2.9822,2.9889,2.9857,2.9769,2.992,2.9837,2.9852,2.9955,3.0109,3.0126,3.0143,3.032,3.036,3.0394,0,0,0,0,0,0,2.9941,2.9894,2.9834,2.9977,2.9982,2.9947,3.0029,2.9955,2.9986,2.9968,2.9878,2.9876,3.0001,2.9989,2.9897,3.0125,2.9999,3.002,3.0129,3.0166,3.0196,3.0196,2.9739,0,0,0,0,0,2.9999,3.006,3.0015,3.0145,3.0151,3.009,3.0118,3.0063,3.0065,3.0066,3.0042,3.0048,3.0096,3.013,3.0172,3.0331,3.0324,3.041,3.044,3.0465,3.0484,3.0566,3.0603,3.0206,3.0205,3.0205,0,0,3.0119,3.0101,3.0145,3.0183,3.018,3.0245,3.0093,3.0169,3.0216,3.0078,3.0181,3.0164,3.0164,3.03,3.0358,3.0293,3.0592,3.0486,3.0506,3.0512,3.0587,3.0625,3.0658,3.0217,3.0215,3.0213,0,0,3.0372,3.0365,3.0472,3.0472,3.047,3.0428,3.0454,3.043,3.0414,3.0516,3.0413,3.0468,3.0553,3.0557,3.0571,3.0825,3.0744,3.0841,3.0999,3.1081,3.1112,3.1139,3.123,3.1263,3.086,3.086,3.0861,0,3.0522,3.0616,3.0536,3.0618,3.0638,3.0514,3.0621,3.0626,3.0639,3.0655,3.0582,3.0686,3.0678,3.0812,3.0874,3.0889,3.0915,3.0843,3.1114,3.114,3.1165,3.125,3.1284,3.0872,3.0871,3.0869,3.0868,0,3.0801,3.0868,3.0954,3.0968,3.0997,3.1092,3.1026,3.1065,3.1007,3.0973,3.1078,3.1063,3.11,3.1127,3.1071,3.1254,3.1214,3.1129,3.1,3.1216,3.1294,3.1326,3.0889,3.0885,3.0881,3.0878,0,0,3.1173,3.1141,3.1174,3.1179,3.1167,3.1217,3.1306,3.1341,3.1376,3.1388,3.146,3.1535,3.1456,3.1472,3.1415,3.1487,3.1688,3.1392,3.1391,3.1448,3.1888,3.1953,3.1992,3.1634,3.164,3.1645,3.1888,0,3.1418,3.1567,3.1497,3.1655,3.1715,3.1598,3.1675,3.1677,3.1647,3.1694,3.1661,3.1716,3.1608,3.1616,3.1682,3.165,3.1776,3.1631,3.1701,3.1705,3.1705,3.2033,3.2101,3.2331,3.1918,3.1924,3.1927,0,3.1723,3.1748,3.1912,3.1888,3.1911,3.1981,3.2007,3.2054,3.2052,3.2026,3.2043,3.197,3.2055,3.1927,3.2043,3.1947,3.1971,3.196,3.1967,3.1971,3.183,3.2046,3.2403,3.2438,3.1975,3.1971,3.1968,0,3.1979,3.2053,3.2159,3.2167,3.2142,3.2195,3.2187,3.2178,3.2204,3.2227,3.2242,3.2276,3.2294,3.2321,3.2259,3.2171,3.2384,3.225,3.2364,3.2366,3.2415,3.2413,3.2782,3.2431,3.243,3.2429,3.2429,0,3.2259,3.2364,3.2274,3.234,3.2453,3.2372,3.2486,3.2466,3.2459,3.2519,3.242,3.2479,3.2392,3.2443,3.2394,3.2498,3.2507,3.2488,3.2474,3.2497,3.25,3.2512,3.2495,3.2438,3.2436,3.2435,3.2433,0,3.2564,3.2508,3.2617,3.2584,3.2578,3.2663,3.2635,3.2695,3.2658,3.2735,3.2748,3.2691,3.2745,3.2685,3.2734,3.2701,3.2842,3.2804,3.2842,3.2832,3.2949,3.2939,3.3339,3.3387,3.3006,3.3009,3.3013,0,3.2747,3.2825,3.28,3.2833,3.2831,3.2885,3.291,3.2832,3.2862,3.2867,3.2926,3.2971,3.3003,3.3094,3.3058,3.3095,3.3057,3.3195,3.3062,3.3083,3.306,3.3056,3.3063,3.3222,3.3227,3.323,3.3233,0,3.3078,3.3046,3.3086,3.3117,3.3149,3.3169,3.3182,3.3215,3.3134,3.3173,3.3226,3.3251,3.33,3.3347,3.3373,3.3365,3.3287,3.3275,3.3303,3.3328,3.3348,3.3339,3.2917,3.3267,3.3263,3.3261,3.3259,3.3258,3.3327,3.3391,3.3383,3.3431,3.3432,3.3446,3.35,3.347,3.3513,3.3547,3.3498,3.3565,3.3561,3.3588,3.3589,3.364,3.3581,3.3622,3.3633,3.3644,3.3662,3.3339,3.3644,3.3643,3.3642,3.3641,3.364,0,3.3653,3.3642,3.3687,3.3707,3.3745,3.3666,3.3676,3.3713,3.3773,3.3775,3.3808,3.387,3.3914,3.388,3.3917,3.3965,3.393,3.3977,3.3973,3.3973,3.3712,3.3684,3.4005,3.4005,3.4005,3.4005,3.4004,3.4004,3.3827,3.393,3.3897,3.4,3.3987,3.4052,3.4064,3.4076,3.4078,3.4151,3.4187,3.4164,3.4152,3.4187,3.4224,3.4213,3.4232,3.4292,3.4269,3.4027,3.3991,3.3957,3.393,3.4297,3.4297,3.4525,3.4527,3.4529]}]]